Home > Weather > Oshawa > Past weeks

Flag for Canada Past Weather in Oshawa, Ontario, Canada — Yesterday and Last 2 Weeks

Now
79 °F

Scattered clouds.


Feels Like: 79 °F
Forecast: 64 / 79 °F
Wind: 10 mph from North

Location: Toronto Buttonville

Current Time: Aug 29, 2016 at 3:59:36 PM

Latest Report: Aug 29, 2016 at 3:00 PM


Visibility: 15 mi

Pressure: 30.24 "Hg

Humidity: 45%

Dew Point: 55 °F

Location of OshawaLocation

Past Weather in Oshawa — Graph

°F

Oshawa Temperature Yesterday

Maximum temperature yesterday: 86 °F (at 3:00 PM)
Minimum temperature yesterday: 66 °F (at 7:00 AM)
Average temperature yesterday: 76 °F

High & Low Weather Summary for the Past Weeks

 TemperatureHumidityPressure
High86 °F (Aug 20, 1:00 PM)100% (Aug 16, 4:00 AM)30.27 "Hg (Aug 16, 4:00 AM)
Low54 °F (Aug 22, 6:00 AM)36% (Aug 22, 3:00 PM)29.57 "Hg (Aug 21, 5:00 AM)
Average73 °F70%30.03 "Hg
* Reported Aug 14 2:00 PM — Aug 29 2:00 PM, Oshawa, Weather by CustomWeather, © 2016

Note: Actual official high and low records may vary slightly from our data, if they occured in-between our weather recording intervals... More about our weather records

Advertising

Oshawa Weather History for the Previous 24 Hours

Scroll right to see more
 ConditionsComfort  
Time TempWeatherWind HumidityBarometerVisibility
2:00 PM
Mon, Aug 29
79 °FBroken clouds.8 mph45%30.25 "Hg15 mi
1:00 PM77 °FPartly sunny.5 mph51%30.26 "Hg15 mi
12:00 PM75 °FPartly sunny.7 mph57%30.26 "Hg15 mi
11:00 AM75 °FPartly sunny.6 mph61%30.27 "Hg15 mi
10:00 AM72 °FPassing clouds.10 mph73%30.26 "Hg15 mi
9:00 AM70 °FPassing clouds.8 mph78%30.25 "Hg15 mi
8:00 AM66 °FPassing clouds.10 mph83%30.24 "Hg15 mi
7:00 AM63 °FPassing clouds.5 mph88%30.24 "Hg15 mi
6:00 AM63 °FPassing clouds.7 mph88%30.22 "Hg15 mi
5:00 AM63 °FClear.7 mph88%30.20 "Hg15 mi
4:00 AM63 °FClear.8 mph88%30.19 "Hg15 mi
3:00 AM64 °FClear.9 mph83%30.18 "Hg15 mi
2:00 AM64 °FClear.6 mph83%30.19 "Hg15 mi
1:00 AM66 °FClear.7 mph78%30.19 "Hg15 mi
12:00 AM68 °FClear.6 mph78%30.18 "Hg15 mi
11:00 PM
Sun, Aug 28
70 °FClear.6 mph78%30.17 "Hg15 mi
10:00 PM72 °FClear.14 mph73%30.17 "Hg15 mi
9:00 PM72 °FClear.8 mph78%30.15 "Hg15 mi
8:00 PM75 °FScattered clouds.9 mph74%30.13 "Hg15 mi
7:00 PM79 °FScattered clouds.14 mph70%30.11 "Hg15 mi
6:00 PM84 °FScattered clouds.14 mph58%30.11 "Hg15 mi
5:00 PM86 °FPartly sunny.9 mph52%30.10 "Hg15 mi
4:00 PM84 °FPartly sunny.6 mph55%30.10 "Hg15 mi
3:00 PM86 °FBroken clouds.7 mph55%30.11 "Hg15 mi
Weather by CustomWeather, © 2016

See weather overviewHow to use our weather pages